Weather Roundup
Issued by NWS

Home | Current Version | Previous Version | Text Only | Print | Product List | Glossary On
Versions: 1 2 3 4 5 6 7 8 9 10 11 12 13 14 15 16 17 18 19 20 21 22 23 24 25 26 27 28 29 30 31 32 33 34 35 36 37 38 39 40 41 42 43 44 45 46 47 48 49 50
000
NZUS93 KARX 252110
HRRWXR

CURRENT HOURLY OBSERVATIONS ACROSS
MUCH OF THE UPPER MISSISSIPPI VALLEY
NATIONAL WEATHER SERVICE LA CROSSE WI
400 PM CDT SUN JUN 25 2017


...SOUTHEAST MINNESOTA...


CITY           SKY/WX    TMP DP  RH WIND       PRES   REMARKS
ROCHESTER      MOSUNNY   66  48  52 NW21G26   30.16S
ROCHESTER/MAYO MOCLDY    63  44  50 W18G28    30.14F
WINONA         CLOUDY    63  48  59 NW13G22   30.13R
AUSTIN         MOSUNNY   66  45  45 NW17      30.16F
ALBERT LEA     MOSUNNY   68  39  34 NW12G21   30.17F
DODGE CENTER   MOSUNNY   64  43  45 NW21      30.15F
PRESTON        PTSUNNY   62  48  60 NW14G24   30.16S
OWATONNA       MOSUNNY   66  45  45 NW16G24   30.16S
FARIBAULT      PTSUNNY   66  41  39 W17G23    30.16S
$$

...ELSEWHERE IN MINNESOTA...


CITY           SKY/WX    TMP DP  RH WIND       PRES   REMARKS
MINNEAPOLIS    PTSUNNY   67  42  40 NW20G28   30.13F
INTNL FALLS    PTSUNNY   56  45  66 E9        30.12S
DULUTH         PTSUNNY   58  44  60 N14G25    30.07S
RED WING       MOSUNNY   70  39  32 NW12G23   30.11F
REDWOOD FALLS  PTSUNNY   69  40  34 N15G22    30.20S
MANKATO        MOSUNNY   67  38  34 NW20G29   30.17F
WORTHINGTON    MOSUNNY   67  42  40 NW16G24   30.24S
FAIRMONT       CLOUDY    66  41  40 NW18G24   30.20F
$$

...SOUTHWEST WISCONSIN...


CITY           SKY/WX    TMP DP  RH WIND       PRES   REMARKS
LA CROSSE      CLOUDY    69  54  58 W12       30.10F
PRAIRIE DU CHI CLOUDY    64  48  56 W9        30.14S
BOSCOBEL       PTSUNNY   66  50  56 W10G18    30.13S
LONE ROCK      CLOUDY    64  50  60 W15G21    30.10F
PLATTEVILLE    CLOUDY    64  52  65 W18G28    30.14S
FORT MC COY    CLOUDY    61  56  83 W9        30.10F
CAMP DOUGLAS   PTSUNNY   59  55  84 W8        30.08R
MAUSTON-NEW LI CLOUDY    64  52  66 W7        30.07F
VIROQUA        CLOUDY    62  55  79 W10G16    30.12S
WIS DELLS      CLOUDY    64  49  59 SW12G17   30.08F
$$

...ELSEWHERE IN WISCONSIN...


CITY           SKY/WX    TMP DP  RH WIND       PRES   REMARKS
MILWAUKEE      MOSUNNY   71  47  42 W16G23    30.04F
MADISON        PTSUNNY   63  50  62 VRB5      30.09F
GREEN BAY      PTSUNNY   70  53  54 W20G25    29.99S
EAU CLAIRE     CLOUDY    62  52  69 N13       30.09R
BLACK RVR FLS  RAIN      56  56  99 W7        30.10R
MEDFORD        CLOUDY    56  52  87 W9G18     30.06S
WAUSAU         CLOUDY    57  54  89 NW10      30.04R
WIS RAPIDS     CLOUDY    64  51  62 W17G23    30.06S
MARSHFIELD     LGT RAIN  55  51  86 W10       30.06R
RICE LAKE      PTSUNNY   62  46  54 NW15G22   30.11S
$$

...NORTHEAST IOWA...


CITY           SKY/WX    TMP DP  RH WIND       PRES   REMARKS
WATERLOO       MOSUNNY   70  45  40 NW16G23   30.16S
DUBUQUE        CLOUDY    62  49  62 NW15      30.16F
DECORAH        CLOUDY    61  50  67 W7G16     30.15S
MASON CITY     MOSUNNY   70  40  33 NW20G31   30.19F
CHARLES CITY   MOSUNNY   68  45  42 NW16G23   30.17F
OELWEIN        PTSUNNY   66  50  55 NW18      30.17S
$$

...ELSEWHERE IN IOWA...


CITY           SKY/WX    TMP DP  RH WIND       PRES   REMARKS
DES MOINES     MOSUNNY   75  42  30 NW18G24   30.21F
IOWA CITY      MOSUNNY   71  47  42 W15G24    30.18F
FORT DODGE     SUNNY     72  45  37 NW13G18   30.22S
MARSHALLTOWN   MOSUNNY   72  45  37 NW20G25   30.18F
CEDAR RAPIDS   PTSUNNY   70  50  49 NW18G24   30.16F
$$

...NORTHERN ILLINOIS...


CITY           SKY/WX    TMP DP  RH WIND       PRES   REMARKS
CHICAGO-OHARE  PTSUNNY   70  46  42 W16G25    30.07F
CHICAGO-MIDWAY PTSUNNY   71  47  42 W16G22    30.08F
MOLINE         PTSUNNY   70  48  45 NW17G24   30.16S
ROCKFORD       PTSUNNY   68  49  50 W18G25    30.12S
PEORIA         PTSUNNY   71  46  40 W12G24    30.15F
$$

NOTE: "FAIR" INDICATES FEW OR NO CLOUDS BELOW 12,000 FEET WITH NO
SIGNIFICANT WEATHER AND/OR OBSTRUCTIONS TO VISIBILITY. WIND
SPEEDS ARE IN MILES-PER-HOUR.




USA.gov is the U.S. government's official web portal to all federal, state and local government web resources and services.